Location: Newark
(42.8481°N, 0.4872°E)
Time: 09:37:55
(UTC+00:00)

Vanguard 3 - Pass Details

Date: 03 November 2020
Orbit: 508 x 3262 km, 33.3° (Epoch: 27 November)

Event Time Altitude Azimuth Distance (km) Brightness Sun altitude
Rises 08:16:55 0° 274° (W) 6,746 11.3 15.3°
Reaches altitude 10° 08:21:17 10° 270° (W) 5,939 11.1 16.0°
Maximum altitude 08:39:39 52° 203° (SSW) 3,739 11.0 18.5°
Drops below altitude 10° 08:56:07 10° 133° (SE) 5,361 13.6 20.6°
Sets 08:59:50 0° 129° (SE) 6,075 13.1 21.1°
